Regional Weather Roundup
Issued by NWS Portland, ME

Home | Current Version | Previous Version | Text Only | Print | Product List | Glossary On
Versions: 1 2 3 4 5 6 7 8 9 10 11 12 13 14 15 16 17 18 19 20 21 22 23 24 25 26 27 28 29 30 31 32 33 34 35 36 37 38 39 40 41 42 43 44 45 46 47 48 49 50
000
ASUS41 KGYX 232310
RWRGYX
WEATHER ROUNDUP FOR MAINE AND NEW HAMPSHIRE
NATIONAL WEATHER SERVICE GRAY ME
700 PM EDT WED AUG 23 2017

MEZ002-005-006-010-012-015-018-020-021-024-026-027-029-240000-
MAINE

CITY           SKY/WX    TMP DP  RH WIND       PRES   REMARKS
PORTLAND       PTCLDY    74  50  42 W9        29.76R
SANFORD        CLEAR     73  54  51 W3        29.78
BAR HARBOR     CLEAR     74  53  48 CALM      29.72R
WISCASSET      CLEAR     76  52  43 VRB5      29.75R
ROCKLAND       CLEAR     73  56  54 NW5       29.73R
FRYEBURG       PTCLDY    72  53  51 W5        29.78R
LEWISTONAUBURN CLEAR     74  52  46 NW6       29.76R
AUGUSTA        CLEAR     73  49  42 VRB6      29.75R
WATERVILLE     CLEAR     71  52  50 W5        29.72R
BANGOR         PTCLDY    75  50  41 NW8G18    29.73R
GREENVILLE       N/A     64  49  57 VRB6      29.74R
MILLINOCKET    CLEAR     70  49  47 W8        29.73R
HOULTON        CLEAR     71  50  47 W12       29.67R
PRESQUE ISLE   MOCLDY    70  50  49 W9G22     29.68R
FRENCHVILLE    PTCLDY    66  48  52 SW14G21   29.64R
CARIBOU        CLEAR     69  49  48 W14G21    29.65R
$$

NHZ002-005-008-009-011-012-014-240000-
NEW HAMPSHIRE

CITY           SKY/WX    TMP DP  RH WIND       PRES   REMARKS
PORTSMOUTH     PTCLDY    75  56  51 W6        29.76R
ROCHESTER      CLEAR     73  52  47 CALM      29.77S
NASHUA         PTCLDY    74  56  53 W3        29.80R
MANCHESTER     PTCLDY    76  51  41 W6        29.77S
CONCORD        CLEAR     74  52  46 W5        29.78S
LACONIA        CLEAR     72  53  51 W6        29.79R
PLYMOUTH       FAIR      72  51  47 W3        29.78R
BERLIN         CLEAR     68  49  50 CALM      29.79R
WHITEFIELD     PTCLDY    65  54  67 CALM      29.79S
JAFFREY        CLEAR     72  53  51 W7        29.84R
KEENE            N/A    N/A N/A N/A MISG        N/A
LEBANON        CLOUDY    71  59  65 S3        29.79R
MT WASHINGTON  FOG       43  43 100 W46         N/A  VSB 1/8
$$

VTZ005-007-008-240000-
VERMONT

CITY           SKY/WX    TMP DP  RH WIND       PRES   REMARKS
ST JOHNSBURY     N/A     70  54  56 MISG      29.77R
MONTPELIER     CLOUDY    68  53  58 W5        29.83S
BURLINGTON     CLOUDY    67  56  67 NW8       29.79R
$$

MAZ007-012-024-CTZ003-RIZ002-NYZ038-NYZ072-240000-
SOUTHERN NEW ENGLAND AND NY

CITY           SKY/WX    TMP DP  RH WIND       PRES   REMARKS
BOSTON         PTCLDY    77  52  41 W13       29.79R
WORCESTER      CLEAR     71  48  43 W6        29.84R
NANTUCKET      PTCLDY    72  69  90 W10       29.79R
PROVIDENCE     MOCLDY    77  54  44 NW7       29.81R
HARTFORD       PTCLDY    77  53  43 NW6       29.82R
ALBANY         PTCLDY    72  53  51 NW9       29.84R
NEW YORK CITY  MOCLDY    80  56  43 NW14      29.82S
$$

ANZ081-ANZ082-ANZ150-NHZ014-MEZ023>029-240000-
COASTAL MARINE OBSERVATIONS

STATION/POSITION TIME  TEMP    WIND        PRES    WAVE
                       AIR SEA DIR/SP/G            HT/PER
                 (UTC) (F)     (DEG/KT/KT) (MB)    (FT/S)
MOUNT DESERT ROC 2300   60     230/ 15/ 15 1006.7R
MATINICUS ROCK   2200   63     240/ 14/ 15 1006.0R
ISLE OF SHOALS   2200   76     280/ 12/ 13 1007.3R
JEFFREYS LEDGE   2206      65                N/A     3/ 8
CASHES LEDGE BUO 2150   71 69              1007.1    4/ 7
GEORGES BANK BUO 2150   71 66              1008.8    6/ 6
$$

.............KEY..............
   WCI - WIND CHILL
   TC  - TEMPERATURE IN CELSIUS
   VSB - VISIBILITY IN MILES
   HX  - HEAT INDEX
   FAIR- INDICATES FEW OR NO CLOUDS BELOW 12,000 FT, WITH NO
         SIGNIFICANT WEATHER AND/OR OBSTRUCTIONS TO VISIBILITY.






USA.gov is the U.S. government's official web portal to all federal, state and local government web resources and services.